Regional Weather Roundup
Issued by NWS Cleveland, OH

Home | Current Version | Previous Version | Graphics & Text | Print | Product List | Glossary On
Versions: 1 2 3 4 5 6 7 8 9 10 11 12 13 14 15 16 17 18 19 20 21 22 23 24 25 26 27 28 29 30 31 32 33 34 35 36 37 38 39 40 41 42 43 44 45 46 47 48 49 50
000
ASUS41 KCLE 191410
RWRCLE
OHIO REGIONAL WEATHER ROUNDUP
NATIONAL WEATHER SERVICE CLEVELAND, OH
900 AM EST FRI DEC 19 2014

NOTE: "FAIR" INDICATES FEW OR NO CLOUDS BELOW 12,000 FEET WITH NO
SIGNIFICANT WEATHER AND/OR OBSTRUCTIONS TO VISIBILITY.

OHZ001>008-015>018-024>027-034-035-043-044-191500-
   NORTHWEST OHIO

CITY           SKY/WX    TMP DP  RH WIND       PRES   REMARKS
DEFIANCE       CLOUDY    29  24  82 NW5       30.27S WCI  24
FINDLAY        CLOUDY    29  24  82 W8        30.25R HAZE    WCI  21
TOLEDO EXPRESS CLOUDY    29  25  85 W3        30.26R FOG
TOLEDO EXEC    CLOUDY    30  25  81 W6        30.27S HAZE    WCI  24
LIMA           CLOUDY    30  22  72 W6        30.25S HAZE    WCI  24
$$

OHZ009>014-019>023-028>033-038-089-191500-
   NORTHEAST OHIO

CITY           SKY/WX    TMP DP  RH WIND       PRES   REMARKS
CLE-HOPKINS    FLURRIES  29  26  89 W5        30.27R WCI  24
CLE-LAKEFRONT  CLOUDY    32  22  66 N13       30.24R WCI  22
CUY CO. ARPT   CLOUDY    32  25  74 NW9       30.23R WCI  24
LORAIN-ELYRIA  CLOUDY    28  27  96 N7        30.25R WCI  21
ASHTABULA      CLOUDY    30  22  72 NW8       30.21R WCI  22
AKRON-CANTON   LGT SNOW  29  26  89 NW6       30.21R FOG     WCI  23
WOOSTER        CLOUDY    28  26  92 NW8       30.23R FOG     WCI  20
MANSFIELD      CLOUDY    27  26  96 W7        30.22R FOG     WCI  19
YOUNGSTOWN     FLURRIES  28  26  92 W8        30.20R WCI  20
$$

OHZ042-051>053-060>062-070>072-077>081-191500-
  SOUTHWEST OHIO

CITY           SKY/WX    TMP DP  RH WIND       PRES   REMARKS
CINC-COVINGTON CLOUDY    28  18  66 N6        30.29R WCI  22
CINC-LUNKEN    CLOUDY    28  21  75 NE6       30.32R WCI  22
HAMILTON       CLOUDY    28  21  75 CALM      30.31R
DAYTON         CLOUDY    27  21  78 CALM      30.27R HAZE
WRIGHT-PAT AFB CLOUDY    27  21  76 NW5       30.28R WCI  22
DAYTON GENERAL CLOUDY    27  20  75 CALM      30.26R
WILMINGTON     CLOUDY    27  19  72 CALM      30.26R
$$

OHZ036-037-039>041-045>050-054>059-063>069-073>076-082>088-191500-
  CENTRAL AND SOUTHEAST OHIO

CITY           SKY/WX    TMP DP  RH WIND       PRES   REMARKS
COLUMBUS       CLOUDY    28  22  78 NW3       30.25F
OSU AIRPORT    CLOUDY    28  22  78 NW6       30.25S WCI  22
BOLTON FIELD   CLOUDY    28  23  80 CALM      30.25F
RICKENBACK AFB CLOUDY    28  22  78 CALM      30.26S
NEWARK         CLOUDY    30  23  75 CALM      30.25R
MARION         CLOUDY    28  23  81 NW8       30.25R HAZE    WCI  20
LANCASTER      CLOUDY    29  22  75 W3        30.25F
ZANESVILLE     CLOUDY    28  22  78 W3        30.24S
NEW PHILLY     CLOUDY    30  25  81 VRB5      30.24R WCI  25
$$



USA.gov is the U.S. government's official web portal to all federal, state and local government web resources and services.